{"data":{"norad_id":62972,"epoch":"2026-09-22T21:38:50.165664Z","epoch_age_seconds":107982,"freshness":"FRESH","line1":"1 62972U 25030B   26265.90196951 -.00000092  00000+0  68246-4 0  9998","line2":"2 62972  50.0013 245.4860 0000548  55.5621 304.5303 13.29325348 78853","mean_motion":13.29325348,"eccentricity":5.48e-5,"inclination_deg":50.0013,"raan_deg":245.486,"arg_perigee_deg":55.5621,"mean_anomaly_deg":304.5303,"bstar":6.8246e-5,"rev_number":7885,"period_min":108.32562563909,"perigee_km":1148.8965291563,"apogee_km":1149.7215372416,"semimajor_km":7527.446033199,"source":"CELESTRAK","updated_at":"2026-09-23T09:00:21.735223Z"}}